DELTA 1 DEB, 7192

Orbit data source: Space-Track

DELTA 1 DEB, 7192 is space debris in LEO originally from a launch on Tue, 06 Nov 1973 UTC launched from the Air Force Western Test Range (AFWTR). Debris objects in space refer to the collection of defunct objects orbiting the Earth. Examples of debris include non-operational satellites, rocket bodies, and fragments generated from explosions, collisions, or faulty payload assembly.

Loading next visibility...
Identifier
7192, 1973-086FA
Orbit
LEO
Country
Flag of USUS
Related business
Manufacturer
Unknown
Mission
Spacecraft
Bus & Motor
Unknown
Mass
Unknown
Launch date (UTC)
1973-11-06 (52 years ago)
Launch vehicle
Unknown
Launch site
Air Force Western Test Range (AFWTR)
Object type
Payload
Rocket body
Debris
Shape & HBR
Unknown shape, 0.2 m
Radar Cross Section
Small (<0.1 m²)

Expand to show TLE details & history
Last TLE update: 1 day ago

TLE from 1 day ago
0 DELTA 1 DEB
1 07192U 73086FA  25291.44540148 -.00000001  00000-0  58233-3 0  9998
2 07192 102.1658  98.4243 0443143 266.2508 113.7970 11.59884165199096
Epoch: 2025-10-18T10:41Z
TLE epoch observation values (Epoch: 2025-10-18T10:41:22.687Z)
Latitude
24.02193°
Longitude
-94.58477°
Altitude
2,028.719 km
Speed
6.821 km/s
True Right ascension
06h 11m 44s
True Declination
23° 54' 49"
Sunlit
Object was in daylight at epoch
Visualization orbit readout
Latitude
Unknown
Longitude
Unknown
Altitude
Unknown
Speed
Unknown
Apparent Right ascension
Unknown
Apparent Declination
Unknown
Sunlit
N/A
Visualization observer readout
Local Sidereal Time
08:24:14
Azimuth
Unknown
Elevation
Unknown
Doppler factor
Unknown
Orbital elements
Apogee altitude
2,228.522 km
Perigee altitude
1,498.094 km
Semi-major axis
8,241.445 km
Eccentricity
0.04431
Inclination
102.1658°
RAAN
98.4243°
Arg. of periapsis
266.2508°
True anomaly
118.33691°
Mean anomaly
113.797°
Eccentric anomaly
116.07755°
Mean motion
2.90094 °/min
Orbital period
124.1 mins
BSTAR
0.00058233
Loading maneuver chart data...
Computing Atmospheric mass density...
Loading historical data...
Loading historical data...
Loading historical data...
Loading historical data...
Loading historical data...
Loading historical data...
Loading historical data...

Documentation

Showing up to 5 results
|